User: anonymous   Login
Location: *
(42.3442°N, 9.2072°E)
Time: 17:41:08
(UTC+00:00)
Language:

Iridium 2 - Orbit

View from above orbital plane
View from above orbital plane
View from above satellite
View from above satellite

Ground track
Ground track

The orbit data is extracted from the following two-line orbital elements,

1 25527U 98066A   20196.42134449  .00000566  00000-0  25435-4 0  9999
2 25527  85.5295  88.0408 0006368 279.2137  80.8384 15.18647884188234
Epoch (UTC): 14 July 2020 10:06:44
Eccentricity: 0.0006368
inclination: 85.5295°
perigee height: 505 km
apogee height: 514 km
right ascension of ascending node: 88.0408°
argument of perigee: 279.2137°
revolutions per day: 15.18647884
mean anomaly at epoch: 80.8384°
orbit number at epoch: 18823

The dashed part of the orbit path shows where the satellite is in the earth's shadow,  

DLR